User: anonymous   Login
Location: Lafig�re
(44.4503°N, 4.0357°E)
Time: 15:58:22
(UTC+00:00)
Language:

Courier 1B - Orbit

View from above orbital plane
View from above orbital plane
View from above satellite
View from above satellite

Ground track
Ground track

The orbit data is extracted from the following two-line orbital elements,

1 00058U 60013A   21129.01603856  .00000101  00000-0  19731-4 0  9994
2 00058  28.3277 242.9635 0165023 244.6640 113.6729 13.46326803982529
Epoch (UTC): 09 May 2021 00:23:05
Eccentricity: 0.0165023
inclination: 28.3277°
perigee height: 962 km
apogee height: 1209 km
right ascension of ascending node: 242.9635°
argument of perigee: 244.6640°
revolutions per day: 13.46326803
mean anomaly at epoch: 113.6729°
orbit number at epoch: 98252

The dashed part of the orbit path shows where the satellite is in the earth's shadow,  

DLR